Change the Weather History Date:

Saturday, December 17, 2011

  Actual Average Record
Temperature  
Mean Temperature 36 °F -  
Max Temperature 42 °F 42 °F 59 °F (2000)
Min Temperature 30 °F 28 °F 14 °F (1991)
Degree Days  
Heating Degree Days 29    
Moisture  
Dew Point 24 °F    
Average Humidity 54    
Maximum Humidity 61    
Minimum Humidity 45    
Precipitation  
Precipitation 0.00 in - - ()
Sea Level Pressure  
Sea Level Pressure 30.06 in    
Wind  
Wind Speed 9 mph (NNW)    
Max Wind Speed 15 mph    
Max Gust Speed 23 mph    
Visibility 10 miles    
Events      
Averages and records for this station are not official NWS values.
T = Trace of Precipitation, MM = Missing Value Source: NWS Daily Summary

Daily Weather History Graph

Daily Weather History Graph

Search for Another Location

Airport or City:

Trip Planner

Search our weather history database for the weather conditions in past years. The results will help you decide how hot, cold, wet, or windy it might be!

Date:

Astronomy

Dec. 17, 2011 Rise Set
Actual Time 7:05 AM EST 4:18 PM EST
Civil Twilight 6:34 AM EST 4:50 PM EST
Nautical Twilight 5:59 AM EST 5:24 PM EST
Astronomical Twilight 5:26 AM EST 5:58 PM EST
Moon No Moon Rise 11:15 AM EST (12/17)
Length of Visible Light 10h 15m
Length of Day
9h 13m
Waning Gibbous, 54% of the Moon is Illuminated
Dec 17
Waning Gibbous
Dec 17
Last Quarter
Dec 24
New
Jan 1
First Quarter
Jan 9
Full

Hourly Weather History & Observations

Time (EST) Temp. Windchill Dew Point Humidity Pressure Visibility Wind Dir Wind Speed Gust Speed Precip Events Conditions
12:15 AM 42.8 °F 36.6 °F 26.6 °F 53% 30.07 in 10.0 mi NW 11.5 mph 16.1 mph N/A   Clear
12:35 AM 41.0 °F 34.7 °F 26.6 °F 57% 30.06 in 10.0 mi NW 10.4 mph - N/A   Clear
1:15 AM 41.0 °F 36.4 °F 26.6 °F 57% 30.07 in 10.0 mi NW 6.9 mph - N/A   Clear
1:35 AM 41.0 °F 37.1 °F 26.6 °F 57% 30.07 in 10.0 mi NW 5.8 mph - N/A   Clear
1:55 AM 41.0 °F 36.4 °F 26.6 °F 57% 30.07 in 10.0 mi NW 6.9 mph - N/A   Clear
2:15 AM 41.0 °F 36.4 °F 26.6 °F 57% 30.08 in 10.0 mi WNW 6.9 mph - N/A   Clear
2:35 AM 41.0 °F 37.1 °F 26.6 °F 57% 30.07 in 10.0 mi West 5.8 mph - N/A   Clear
2:55 AM 41.0 °F 38.0 °F 26.6 °F 57% 30.06 in 10.0 mi NW 4.6 mph - N/A   Clear
3:35 AM 39.2 °F 32.5 °F 26.6 °F 61% 30.06 in 10.0 mi NW 10.4 mph - N/A   Clear
3:55 AM 41.0 °F 35.8 °F 26.6 °F 57% 30.05 in 10.0 mi NW 8.1 mph - N/A   Clear
4:15 AM 41.0 °F 35.2 °F 26.6 °F 57% 30.06 in 10.0 mi NW 9.2 mph - N/A   Clear
4:35 AM 41.0 °F 36.4 °F 26.6 °F 57% 30.05 in 10.0 mi NW 6.9 mph - N/A   Clear
4:55 AM 39.2 °F 33.0 °F 26.6 °F 61% 30.06 in 10.0 mi NW 9.2 mph - N/A   Clear
5:15 AM 39.2 °F 32.5 °F 26.6 °F 61% 30.05 in 10.0 mi NW 10.4 mph 18.4 mph N/A   Clear
5:35 AM 39.2 °F 33.6 °F 24.8 °F 56% 30.05 in 10.0 mi NNW 8.1 mph 17.3 mph N/A   Clear
5:55 AM 39.2 °F 34.2 °F 26.6 °F 61% 30.07 in 10.0 mi NW 6.9 mph 18.4 mph N/A   Clear
6:15 AM 39.2 °F 34.2 °F 26.6 °F 61% 30.07 in 10.0 mi NW 6.9 mph - N/A   Clear
6:35 AM 39.2 °F 33.6 °F 24.8 °F 56% 30.08 in 10.0 mi NW 8.1 mph - N/A   Clear
6:55 AM 39.2 °F 35.0 °F 26.6 °F 61% 30.07 in 10.0 mi WNW 5.8 mph - N/A   Mostly Cloudy
7:15 AM 39.2 °F 34.2 °F 24.8 °F 56% 30.07 in 10.0 mi NW 6.9 mph - N/A   Partly Cloudy
7:35 AM 39.2 °F 33.6 °F 26.6 °F 61% 30.07 in 10.0 mi NW 8.1 mph 16.1 mph N/A   Clear
7:55 AM 41.0 °F 35.2 °F 24.8 °F 53% 30.08 in 10.0 mi NW 9.2 mph - N/A   Scattered Clouds
8:35 AM 41.0 °F 33.5 °F 26.6 °F 57% 30.09 in 10.0 mi NNW 13.8 mph 19.6 mph N/A   Overcast
8:55 AM 41.0 °F 34.7 °F 26.6 °F 57% 30.08 in 10.0 mi NW 10.4 mph 17.3 mph N/A   Overcast
9:35 AM 41.0 °F 35.8 °F 26.6 °F 57% 30.08 in 10.0 mi NNW 8.1 mph 18.4 mph N/A   Overcast
10:15 AM 41.0 °F 34.7 °F 26.6 °F 57% 30.07 in 10.0 mi NNW 10.4 mph 16.1 mph N/A   Overcast
10:35 AM 41.0 °F 35.2 °F 26.6 °F 57% 30.07 in 10.0 mi NNW 9.2 mph - N/A   Overcast
10:55 AM 41.0 °F 35.8 °F 26.6 °F 57% 30.06 in 10.0 mi North 8.1 mph - N/A   Overcast
11:15 AM 42.8 °F 37.0 °F 26.6 °F 53% 30.04 in 10.0 mi NNW 10.4 mph - N/A   Overcast
11:35 AM 41.0 °F 34.7 °F 26.6 °F 57% 30.04 in 10.0 mi North 10.4 mph 16.1 mph N/A   Overcast
11:55 AM 42.8 °F 38.0 °F 26.6 °F 53% 30.03 in 10.0 mi North 8.1 mph - N/A   Overcast
12:15 PM 42.8 °F 40.1 °F 26.6 °F 53% 30.02 in 10.0 mi North 4.6 mph - N/A   Overcast
12:35 PM 42.8 °F 40.1 °F 26.6 °F 53% 30.02 in 10.0 mi North 4.6 mph - N/A   Scattered Clouds
1:15 PM 42.8 °F 37.5 °F 26.6 °F 53% 30.02 in 10.0 mi North 9.2 mph - N/A   Overcast
1:35 PM 42.8 °F 38.0 °F 24.8 °F 49% 30.01 in 10.0 mi North 8.1 mph - N/A   Overcast
1:55 PM 42.8 °F 38.0 °F 24.8 °F 49% 30.01 in 10.0 mi North 8.1 mph - N/A   Overcast
2:15 PM 42.8 °F 37.0 °F 24.8 °F 49% 30.02 in 10.0 mi North 10.4 mph - N/A   Overcast
2:35 PM 42.8 °F 38.0 °F 23.0 °F 46% 30.02 in 10.0 mi North 8.1 mph 18.4 mph N/A   Overcast
2:55 PM 42.8 °F 37.5 °F 23.0 °F 46% 30.03 in 10.0 mi North 9.2 mph - N/A   Overcast
3:15 PM 42.8 °F 36.2 °F 23.0 °F 46% 30.03 in 10.0 mi NNW 12.7 mph 18.4 mph N/A   Overcast
3:55 PM 41.0 °F 35.8 °F 23.0 °F 49% 30.04 in 10.0 mi NNW 8.1 mph - N/A   Overcast
4:15 PM 41.0 °F 34.3 °F 21.2 °F 45% 30.05 in 10.0 mi NNW 11.5 mph 20.7 mph N/A   Overcast
4:35 PM 39.2 °F 31.2 °F 21.2 °F 49% 30.06 in 10.0 mi NNW 13.8 mph 21.9 mph N/A   Overcast
4:55 PM 39.2 °F 31.6 °F 21.2 °F 49% 30.06 in 10.0 mi North 12.7 mph 18.4 mph N/A   Overcast
5:15 PM 37.4 °F 29.8 °F 21.2 °F 52% 30.07 in 10.0 mi North 11.5 mph 20.7 mph N/A   Overcast
5:35 PM 37.4 °F 29.3 °F 19.4 °F 48% 30.06 in 10.0 mi North 12.7 mph 20.7 mph N/A   Overcast
6:15 PM 37.4 °F 28.9 °F 19.4 °F 48% 30.07 in 10.0 mi NNW 13.8 mph 18.4 mph N/A   Mostly Cloudy
7:15 PM 37.4 °F 29.8 °F 19.4 °F 48% 30.08 in 10.0 mi NNW 11.5 mph 19.6 mph N/A   Overcast
7:55 PM 35.6 °F 27.1 °F 17.6 °F 48% 30.09 in 10.0 mi North 12.7 mph 23.0 mph N/A   Scattered Clouds
8:15 PM 35.6 °F 26.2 °F 19.4 °F 52% 30.09 in 10.0 mi North 15.0 mph 21.9 mph N/A   Overcast
8:35 PM 35.6 °F 28.0 °F 17.6 °F 48% 30.09 in 10.0 mi North 10.4 mph 20.7 mph N/A   Overcast
8:55 PM 35.6 °F 26.6 °F 19.4 °F 52% 30.09 in 10.0 mi North 13.8 mph 19.6 mph N/A   Overcast
9:35 PM 35.6 °F 27.5 °F 17.6 °F 48% 30.10 in 10.0 mi NNE 11.5 mph - N/A   Overcast
9:55 PM 33.8 °F 25.3 °F 17.6 °F 52% 30.10 in 10.0 mi NNE 11.5 mph 18.4 mph N/A   Overcast
10:15 PM 33.8 °F 24.8 °F 17.6 °F 52% 30.11 in 10.0 mi North 12.7 mph 16.1 mph N/A   Mostly Cloudy
10:35 PM 33.8 °F 23.9 °F 15.8 °F 48% 30.11 in 10.0 mi North 15.0 mph 20.7 mph N/A   Partly Cloudy
10:55 PM 32.0 °F 22.5 °F 15.8 °F 51% 30.11 in 10.0 mi NNE 12.7 mph 18.4 mph N/A   Clear
11:15 PM 30.2 °F 19.8 °F 15.8 °F 55% 30.11 in 10.0 mi NNE 13.8 mph 18.4 mph N/A   Clear
11:55 PM 30.2 °F 19.8 °F 14.0 °F 51% 30.11 in 10.0 mi North 13.8 mph 23.0 mph N/A   Scattered Clouds